TimeHST,TemperatureF,Dew PointF,Humidity,Sea Level PressureIn,VisibilityMPH,Wind Direction,Wind SpeedMPH,Gust SpeedMPH,PrecipitationIn,Events,Conditions,WindDirDegrees,DateUTC
12:00 AM,66.2,64.4,94,30.02,10.0,WNW,4.6,-,N/A,,Mostly Cloudy,300,2013-01-03 10:00:00
12:03 AM,66.2,64.4,94,30.02,10.0,West,4.6,-,N/A,,Scattered Clouds,280,2013-01-03 10:03:00
12:11 AM,66.2,64.4,94,30.03,10.0,West,3.5,-,N/A,,Scattered Clouds,280,2013-01-03 10:11:00
12:12 AM,66.2,64.4,94,30.03,10.0,West,4.6,-,N/A,,Scattered Clouds,280,2013-01-03 10:12:00
12:15 AM,66.2,64.4,94,30.03,10.0,West,4.6,-,N/A,,Mostly Cloudy,280,2013-01-03 10:15:00
12:17 AM,66.2,64.4,94,30.03,10.0,West,4.6,-,N/A,,Mostly Cloudy,280,2013-01-03 10:17:00
12:18 AM,66.2,64.4,94,30.03,9.0,West,4.6,-,N/A,,Light Drizzle,280,2013-01-03 10:18:00
12:19 AM,66.2,64.4,94,30.03,9.0,West,4.6,-,N/A,,Light Drizzle,280,2013-01-03 10:19:00
12:21 AM,66.2,64.4,94,30.03,7.0,WNW,4.6,-,N/A,,Light Drizzle,290,2013-01-03 10:21:00
12:22 AM,66.2,64.4,94,30.03,7.0,WNW,4.6,-,N/A,,Drizzle,290,2013-01-03 10:22:00
12:55 AM,66.6,65.1,95,30.02,9.0,NW,4.6,-,0.01,,Light Drizzle,310,2013-01-03 10:55:00
12:57 AM,66.2,64.4,94,30.02,9.0,NW,4.6,-,N/A,,Light Drizzle,310,2013-01-03 10:57:00
12:59 AM,66.2,64.4,94,30.02,10.0,NW,5.8,-,N/A,,Scattered Clouds,320,2013-01-03 10:59:00
1:00 AM,66.2,64.4,94,30.02,10.0,NW,5.8,-,N/A,,Light Drizzle,320,2013-01-03 11:00:00
1:07 AM,66.2,64.4,94,30.02,6.0,NNW,3.5,-,N/A,Rain,Light Rain,330,2013-01-03 11:07:00
1:17 AM,66.2,64.4,94,30.01,7.0,NW,3.5,-,N/A,,Light Drizzle,310,2013-01-03 11:17:00
1:37 AM,66.2,64.4,94,30.01,10.0,NW,5.8,-,N/A,,Partly Cloudy,320,2013-01-03 11:37:00
1:39 AM,66.2,64.4,94,30.01,9.0,NW,5.8,-,N/A,,Light Drizzle,320,2013-01-03 11:39:00
1:51 AM,66.2,64.4,94,30.01,10.0,NNW,4.6,-,N/A,,Clear,330,2013-01-03 11:51:00
1:55 AM,66.6,64.9,95,30.00,10.0,NW,5.8,-,0.01,,Clear,320,2013-01-03 11:55:00
2:15 AM,66.2,64.4,94,30.00,10.0,NW,4.6,-,N/A,,Light Drizzle,310,2013-01-03 12:15:00
2:25 AM,66.2,64.4,94,30.00,9.0,WNW,4.6,-,N/A,,Light Drizzle,300,2013-01-03 12:25:00
2:27 AM,66.2,64.4,94,30.00,10.0,NW,5.8,-,N/A,,Light Drizzle,310,2013-01-03 12:27:00
2:39 AM,66.2,64.4,94,29.99,7.0,NW,4.6,-,N/A,,Light Drizzle,310,2013-01-03 12:39:00
2:50 AM,66.2,64.4,94,29.99,5.0,NNW,5.8,-,N/A,Rain,Rain,330,2013-01-03 12:50:00
2:55 AM,66.2,64.8,95,29.99,6.0,NNW,4.6,-,0.02,Rain,Light Rain,330,2013-01-03 12:55:00
3:01 AM,66.2,64.4,94,29.99,9.0,NW,6.9,-,N/A,,Mostly Cloudy,320,2013-01-03 13:01:00
3:02 AM,66.2,64.4,94,29.99,9.0,NW,6.9,-,N/A,,Light Drizzle,320,2013-01-03 13:02:00
3:08 AM,66.2,64.4,94,29.99,10.0,NW,5.8,-,N/A,,Light Drizzle,320,2013-01-03 13:08:00
3:09 AM,66.2,64.4,94,29.99,10.0,NW,6.9,-,N/A,,Scattered Clouds,320,2013-01-03 13:09:00
3:24 AM,66.2,64.4,94,29.99,9.0,NW,3.5,-,N/A,,Light Drizzle,310,2013-01-03 13:24:00
3:40 AM,66.2,64.4,94,29.99,10.0,WNW,4.6,-,N/A,,Partly Cloudy,300,2013-01-03 13:40:00
3:49 AM,66.2,64.4,94,29.99,8.0,NW,6.9,-,N/A,Rain,Light Rain,310,2013-01-03 13:49:00
3:54 AM,66.2,64.4,94,29.99,5.0,NW,5.8,-,N/A,Rain,Light Rain,320,2013-01-03 13:54:00
3:55 AM,66.0,64.6,95,29.99,5.0,NW,5.8,-,0.01,Rain,Light Rain,320,2013-01-03 13:55:00
3:57 AM,66.2,64.4,94,29.99,4.0,NW,4.6,-,N/A,Rain,Light Rain,320,2013-01-03 13:57:00
4:23 AM,66.2,64.4,94,29.99,9.0,NNW,5.8,-,N/A,,Light Drizzle,330,2013-01-03 14:23:00
4:32 AM,66.2,64.4,94,29.98,10.0,NW,5.8,-,N/A,,Partly Cloudy,310,2013-01-03 14:32:00
4:43 AM,66.2,64.4,94,29.98,9.0,NW,5.8,-,N/A,,Light Drizzle,320,2013-01-03 14:43:00
4:55 AM,66.0,64.6,95,29.98,10.0,NW,5.8,-,0.01,,Clear,310,2013-01-03 14:55:00
5:03 AM,66.2,64.4,94,29.98,9.0,NW,5.8,-,N/A,,Light Drizzle,320,2013-01-03 15:03:00
5:18 AM,66.2,64.4,94,29.99,9.0,NW,6.9,-,N/A,,Partly Cloudy,310,2013-01-03 15:18:00
5:23 AM,66.2,64.4,94,29.99,9.0,NW,6.9,-,N/A,,Light Drizzle,310,2013-01-03 15:23:00
5:34 AM,66.2,64.4,94,29.99,10.0,NW,6.9,-,N/A,,Partly Cloudy,310,2013-01-03 15:34:00
5:42 AM,66.2,64.4,94,29.99,9.0,NW,5.8,-,N/A,,Drizzle,320,2013-01-03 15:42:00
5:55 AM,66.0,64.6,95,29.99,10.0,NW,5.8,-,0.00,,Light Drizzle,320,2013-01-03 15:55:00
6:00 AM,66.2,64.4,94,29.99,8.0,NW,5.8,-,N/A,,Light Drizzle,320,2013-01-03 16:00:00
6:10 AM,66.2,64.4,94,29.99,10.0,NW,5.8,-,N/A,,Mostly Cloudy,320,2013-01-03 16:10:00
6:12 AM,66.2,64.4,94,29.99,10.0,NW,4.6,-,N/A,,Scattered Clouds,310,2013-01-03 16:12:00
6:21 AM,66.2,64.4,94,29.99,10.0,NW,5.8,-,N/A,,Light Drizzle,310,2013-01-03 16:21:00
6:33 AM,66.2,64.4,94,29.99,10.0,NW,6.9,-,N/A,,Partly Cloudy,310,2013-01-03 16:33:00
6:55 AM,66.0,64.6,95,30.00,10.0,NW,5.8,-,0.01,,Clear,320,2013-01-03 16:55:00
7:00 AM,66.2,64.4,94,30.00,9.0,NW,9.2,-,N/A,,Light Drizzle,310,2013-01-03 17:00:00
7:24 AM,66.2,64.4,94,30.01,10.0,NW,6.9,-,N/A,,Partly Cloudy,320,2013-01-03 17:24:00
7:30 AM,66.2,64.4,94,30.01,8.0,NNW,6.9,-,N/A,,Light Drizzle,330,2013-01-03 17:30:00
7:36 AM,66.2,64.4,94,30.02,8.0,NNW,6.9,-,N/A,,Clear,340,2013-01-03 17:36:00
7:55 AM,66.2,64.8,95,30.03,10.0,NW,5.8,-,0.00,,Clear,320,2013-01-03 17:55:00
8:35 AM,66.2,64.4,94,30.04,7.0,NW,4.6,-,N/A,Rain,Light Rain,320,2013-01-03 18:35:00
8:42 AM,68.0,66.2,94,30.04,6.0,NW,5.8,-,N/A,Rain,Light Rain,310,2013-01-03 18:42:00
8:45 AM,68.0,66.2,94,30.04,6.0,NW,5.8,-,N/A,,Light Drizzle,310,2013-01-03 18:45:00
8:55 AM,67.3,65.8,95,30.04,6.0,NW,5.8,-,0.00,,Light Drizzle,310,2013-01-03 18:55:00
8:58 AM,68.0,66.2,94,30.04,7.0,NW,5.8,-,N/A,,Light Drizzle,320,2013-01-03 18:58:00
9:05 AM,68.0,66.2,94,30.04,10.0,Variable,3.5,-,N/A,,Scattered Clouds,0,2013-01-03 19:05:00
9:09 AM,68.0,66.2,94,30.05,10.0,Variable,5.8,-,N/A,,Scattered Clouds,0,2013-01-03 19:09:00
9:35 AM,68.0,66.2,94,30.05,10.0,North,4.6,-,N/A,,Mostly Cloudy,10,2013-01-03 19:35:00
9:37 AM,68.0,66.2,94,30.05,10.0,NNE,5.8,-,N/A,,Light Drizzle,30,2013-01-03 19:37:00
9:38 AM,68.0,66.2,94,30.05,10.0,NNE,5.8,-,N/A,,Light Drizzle,30,2013-01-03 19:38:00
9:40 AM,68.0,66.2,94,30.05,10.0,Variable,4.6,-,N/A,,Light Drizzle,0,2013-01-03 19:40:00
9:49 AM,68.0,66.2,94,30.06,10.0,NNE,9.2,-,N/A,,Scattered Clouds,30,2013-01-03 19:49:00
9:55 AM,68.7,66.4,92,30.06,10.0,North,8.1,-,0.01,,Scattered Clouds,10,2013-01-03 19:55:00
9:57 AM,68.0,66.2,94,30.06,10.0,North,8.1,-,N/A,,Scattered Clouds,360,2013-01-03 19:57:00
9:58 AM,68.0,66.2,94,30.06,10.0,North,6.9,-,N/A,,Light Drizzle,360,2013-01-03 19:58:00
10:02 AM,68.0,66.2,94,30.06,10.0,NNE,8.1,-,N/A,,Light Drizzle,20,2013-01-03 20:02:00
10:03 AM,68.0,66.2,94,30.06,10.0,North,8.1,-,N/A,,Light Drizzle,10,2013-01-03 20:03:00
10:05 AM,68.0,66.2,94,30.06,10.0,NNE,5.8,-,N/A,,Light Drizzle,20,2013-01-03 20:05:00
10:06 AM,68.0,66.2,94,30.06,10.0,NNE,5.8,-,N/A,,Scattered Clouds,30,2013-01-03 20:06:00
10:29 AM,69.8,66.2,88,30.06,10.0,ENE,3.5,-,N/A,,Mostly Cloudy,60,2013-01-03 20:29:00
10:33 AM,69.8,66.2,88,30.05,9.0,NE,3.5,-,N/A,,Light Drizzle,40,2013-01-03 20:33:00
10:34 AM,69.8,66.2,88,30.05,8.0,NE,3.5,-,N/A,,Light Drizzle,50,2013-01-03 20:34:00
10:36 AM,69.8,66.2,88,30.05,7.0,Calm,Calm,-,N/A,,Light Drizzle,0,2013-01-03 20:36:00
10:38 AM,69.8,66.2,88,30.05,6.0,Calm,Calm,-,N/A,,Light Drizzle,0,2013-01-03 20:38:00
10:39 AM,69.8,66.2,88,30.05,6.0,Calm,Calm,-,N/A,,Light Drizzle,0,2013-01-03 20:39:00
10:40 AM,69.8,66.2,88,30.05,6.0,Calm,Calm,-,N/A,,Light Drizzle,0,2013-01-03 20:40:00
10:41 AM,69.8,66.2,88,30.05,5.0,Calm,Calm,-,N/A,,Light Drizzle,0,2013-01-03 20:41:00
10:55 AM,69.4,66.7,91,30.05,9.0,NNE,4.6,-,0.00,,Light Drizzle,30,2013-01-03 20:55:00
10:59 AM,69.8,66.2,88,30.04,9.0,NNE,3.5,-,N/A,,Mostly Cloudy,30,2013-01-03 20:59:00
11:01 AM,69.8,66.2,88,30.04,9.0,Calm,Calm,-,N/A,,Light Drizzle,0,2013-01-03 21:01:00
11:02 AM,69.8,66.2,88,30.04,9.0,NE,3.5,-,N/A,,Light Drizzle,40,2013-01-03 21:02:00
11:09 AM,69.8,66.2,88,30.04,7.0,Calm,Calm,-,N/A,,Light Drizzle,0,2013-01-03 21:09:00
11:13 AM,69.8,66.2,88,30.04,7.0,ESE,4.6,-,N/A,,Light Drizzle,110,2013-01-03 21:13:00
11:20 AM,69.8,68.0,94,30.04,9.0,East,9.2,-,N/A,,Scattered Clouds,90,2013-01-03 21:20:00
11:31 AM,69.8,66.2,88,30.04,9.0,East,6.9,-,N/A,,Mostly Cloudy,80,2013-01-03 21:31:00
11:33 AM,69.8,66.2,88,30.04,7.0,East,5.8,-,N/A,,Light Drizzle,90,2013-01-03 21:33:00
11:34 AM,69.8,66.2,88,30.04,6.0,East,5.8,-,N/A,,Light Drizzle,80,2013-01-03 21:34:00
11:36 AM,69.8,66.2,88,30.04,5.0,East,4.6,-,N/A,,Light Drizzle,90,2013-01-03 21:36:00
11:39 AM,69.8,66.2,88,30.04,4.0,Variable,6.9,-,N/A,,Light Drizzle,0,2013-01-03 21:39:00
11:40 AM,69.8,66.2,88,30.04,4.0,Variable,6.9,-,N/A,,Light Drizzle,0,2013-01-03 21:40:00
11:45 AM,69.8,66.2,88,30.04,6.0,NE,6.9,-,N/A,,Light Drizzle,50,2013-01-03 21:45:00
11:50 AM,69.8,66.2,88,30.03,10.0,NNE,5.8,-,N/A,,Mostly Cloudy,30,2013-01-03 21:50:00
11:54 AM,69.8,66.2,88,30.03,9.0,Variable,3.5,-,N/A,,Mostly Cloudy,0,2013-01-03 21:54:00
11:55 AM,69.3,66.2,90,30.03,8.0,Variable,4.6,-,0.00,,Light Drizzle,0,2013-01-03 21:55:00
11:56 AM,69.8,66.2,88,30.03,8.0,Variable,5.8,-,N/A,,Light Drizzle,0,2013-01-03 21:56:00
12:01 PM,69.8,66.2,88,30.03,7.0,NE,9.2,-,N/A,,Light Drizzle,50,2013-01-03 22:01:00
12:05 PM,69.8,66.2,88,30.03,9.0,NE,6.9,-,N/A,,Mostly Cloudy,40,2013-01-03 22:05:00
12:08 PM,69.8,66.2,88,30.03,10.0,NE,4.6,-,N/A,,Mostly Cloudy,40,2013-01-03 22:08:00
12:10 PM,69.8,66.2,88,30.03,10.0,NE,5.8,-,N/A,,Mostly Cloudy,40,2013-01-03 22:10:00
12:17 PM,69.8,66.2,88,30.02,10.0,NNE,9.2,-,N/A,,Overcast,30,2013-01-03 22:17:00
12:29 PM,69.8,66.2,88,30.02,10.0,NE,11.5,17.3,N/A,,Overcast,50,2013-01-03 22:29:00
12:37 PM,71.6,66.2,83,30.01,10.0,ENE,10.4,17.3,N/A,,Overcast,60,2013-01-03 22:37:00
12:45 PM,69.8,66.2,88,30.01,10.0,NE,15.0,21.9,N/A,,Overcast,50,2013-01-03 22:45:00
12:49 PM,69.8,66.2,88,30.01,10.0,ENE,12.7,21.9,N/A,,Mostly Cloudy,60,2013-01-03 22:49:00
12:50 PM,69.8,66.2,88,30.01,10.0,ENE,12.7,21.9,N/A,,Overcast,60,2013-01-03 22:50:00
12:55 PM,70.5,66.2,86,30.01,10.0,ENE,11.5,-,0.00,,Mostly Cloudy,60,2013-01-03 22:55:00
1:01 PM,69.8,66.2,88,30.01,10.0,ENE,9.2,-,N/A,,Light Drizzle,60,2013-01-03 23:01:00
1:06 PM,69.8,66.2,88,30.01,9.0,ENE,10.4,-,N/A,,Light Drizzle,60,2013-01-03 23:06:00
1:10 PM,71.6,66.2,83,30.00,10.0,Variable,6.9,-,N/A,,Mostly Cloudy,0,2013-01-03 23:10:00
1:13 PM,71.6,66.2,83,30.00,10.0,ENE,11.5,-,N/A,,Mostly Cloudy,60,2013-01-03 23:13:00
1:15 PM,71.6,66.2,83,30.00,10.0,East,8.1,-,N/A,,Mostly Cloudy,90,2013-01-03 23:15:00
1:16 PM,71.6,66.2,83,30.00,10.0,East,6.9,-,N/A,,Mostly Cloudy,80,2013-01-03 23:16:00
1:17 PM,71.6,66.2,83,30.00,10.0,NE,8.1,-,N/A,,Mostly Cloudy,50,2013-01-03 23:17:00
1:36 PM,71.6,66.2,83,29.99,10.0,ENE,13.8,-,N/A,,Mostly Cloudy,60,2013-01-03 23:36:00
1:53 PM,71.6,66.2,83,29.99,10.0,NE,10.4,-,N/A,,Mostly Cloudy,50,2013-01-03 23:53:00
1:55 PM,71.2,66.0,84,29.99,10.0,ENE,9.2,-,0.00,,Mostly Cloudy,60,2013-01-03 23:55:00
1:58 PM,71.6,66.2,83,29.99,10.0,NE,8.1,-,N/A,,Mostly Cloudy,50,2013-01-03 23:58:00
2:00 PM,71.6,66.2,83,29.99,10.0,NE,9.2,-,N/A,,Mostly Cloudy,50,2013-01-04 00:00:00
2:02 PM,71.6,66.2,83,29.99,10.0,ENE,8.1,-,N/A,,Mostly Cloudy,60,2013-01-04 00:02:00
2:04 PM,71.6,66.2,83,29.99,10.0,NE,10.4,-,N/A,,Mostly Cloudy,40,2013-01-04 00:04:00
2:10 PM,71.6,66.2,83,29.99,10.0,NE,9.2,-,N/A,,Mostly Cloudy,50,2013-01-04 00:10:00
2:13 PM,71.6,66.2,83,29.99,8.0,NE,9.2,-,N/A,Rain,Light Rain,40,2013-01-04 00:13:00
2:14 PM,71.6,66.2,83,29.99,7.0,NE,9.2,-,N/A,Rain,Light Rain,50,2013-01-04 00:14:00
2:25 PM,69.8,66.2,88,29.99,4.0,NNE,8.1,-,N/A,,Light Drizzle,30,2013-01-04 00:25:00
2:55 PM,69.6,66.0,88,29.99,7.0,NE,6.9,-,0.01,,Light Drizzle,50,2013-01-04 00:55:00
3:05 PM,69.8,66.2,88,29.99,7.0,NE,12.7,-,N/A,,Light Drizzle,50,2013-01-04 01:05:00
3:07 PM,69.8,66.2,88,29.99,8.0,NE,9.2,-,N/A,,Light Drizzle,50,2013-01-04 01:07:00
3:11 PM,69.8,66.2,88,29.99,9.0,NE,9.2,-,N/A,,Scattered Clouds,40,2013-01-04 01:11:00
3:13 PM,69.8,66.2,88,29.99,8.0,NNE,8.1,-,N/A,,Scattered Clouds,30,2013-01-04 01:13:00
3:16 PM,69.8,66.2,88,29.99,8.0,NE,8.1,-,N/A,,Light Drizzle,40,2013-01-04 01:16:00
3:26 PM,69.8,66.2,88,29.99,10.0,NNE,9.2,-,N/A,,Partly Cloudy,20,2013-01-04 01:26:00
3:37 PM,69.8,66.2,88,29.99,10.0,North,8.1,-,N/A,,Light Drizzle,360,2013-01-04 01:37:00
3:50 PM,69.8,66.2,88,30.00,10.0,North,6.9,-,N/A,,Partly Cloudy,10,2013-01-04 01:50:00
3:55 PM,69.1,65.5,88,30.00,10.0,NE,9.2,-,0.00,,Partly Cloudy,40,2013-01-04 01:55:00
4:09 PM,68.0,64.4,88,30.00,10.0,NNE,6.9,-,N/A,,Partly Cloudy,30,2013-01-04 02:09:00
4:12 PM,68.0,64.4,88,30.00,10.0,Variable,6.9,-,N/A,,Partly Cloudy,0,2013-01-04 02:12:00
4:16 PM,69.8,64.4,83,30.00,9.0,North,5.8,-,N/A,,Light Drizzle,360,2013-01-04 02:16:00
4:17 PM,69.8,64.4,83,30.00,9.0,North,5.8,-,N/A,,Light Drizzle,360,2013-01-04 02:17:00
4:29 PM,68.0,64.4,88,30.00,10.0,Variable,6.9,-,N/A,,Scattered Clouds,0,2013-01-04 02:29:00
4:45 PM,68.0,64.4,88,30.01,10.0,NE,9.2,-,N/A,,Mostly Cloudy,40,2013-01-04 02:45:00
4:55 PM,68.9,64.4,86,30.01,10.0,North,4.6,-,0.00,,Light Drizzle,10,2013-01-04 02:55:00
4:56 PM,68.0,64.4,88,30.01,10.0,Variable,3.5,-,N/A,,Light Drizzle,0,2013-01-04 02:56:00
5:01 PM,68.0,64.4,88,30.01,10.0,North,5.8,-,N/A,,Light Drizzle,10,2013-01-04 03:01:00
5:11 PM,68.0,64.4,88,30.01,10.0,Variable,5.8,-,N/A,,Light Drizzle,0,2013-01-04 03:11:00
5:13 PM,68.0,64.4,88,30.01,10.0,Variable,6.9,-,N/A,,Light Drizzle,0,2013-01-04 03:13:00
5:22 PM,68.0,64.4,88,30.01,9.0,North,3.5,-,N/A,,Light Drizzle,360,2013-01-04 03:22:00
5:26 PM,68.0,64.4,88,30.01,10.0,North,3.5,-,N/A,,Scattered Clouds,360,2013-01-04 03:26:00
5:29 PM,68.0,64.4,88,30.01,10.0,NNE,5.8,-,N/A,,Light Drizzle,20,2013-01-04 03:29:00
5:55 PM,67.6,64.4,89,30.03,10.0,North,5.8,-,0.00,,Light Drizzle,350,2013-01-04 03:55:00
6:16 PM,68.0,64.4,88,30.03,7.0,NNW,5.8,-,N/A,Rain,Light Rain,340,2013-01-04 04:16:00
6:17 PM,68.0,64.4,88,30.04,7.0,NNW,4.6,-,N/A,Rain,Light Rain,340,2013-01-04 04:17:00
6:25 PM,68.0,64.4,88,30.04,7.0,Variable,5.8,-,N/A,,Light Drizzle,0,2013-01-04 04:25:00
6:40 PM,66.2,64.4,94,30.04,10.0,North,5.8,-,N/A,,Mostly Cloudy,360,2013-01-04 04:40:00
6:43 PM,66.2,64.4,94,30.04,10.0,North,6.9,-,N/A,,Light Drizzle,360,2013-01-04 04:43:00
6:45 PM,66.2,64.4,94,30.04,10.0,North,4.6,-,N/A,,Light Drizzle,360,2013-01-04 04:45:00
6:52 PM,66.2,64.4,94,30.04,10.0,North,6.9,-,N/A,,Light Drizzle,350,2013-01-04 04:52:00
6:55 PM,66.9,64.0,90,30.05,10.0,North,8.1,-,0.01,,Light Drizzle,350,2013-01-04 04:55:00
7:00 PM,66.2,64.4,94,30.05,10.0,North,4.6,-,N/A,,Light Drizzle,360,2013-01-04 05:00:00
7:11 PM,66.2,64.4,94,30.06,10.0,North,4.6,-,N/A,,Light Drizzle,360,2013-01-04 05:11:00
7:16 PM,66.2,64.4,94,30.06,10.0,Calm,Calm,-,N/A,,Clear,0,2013-01-04 05:16:00
7:17 PM,66.2,64.4,94,30.06,10.0,Calm,Calm,-,N/A,,Light Drizzle,0,2013-01-04 05:17:00
7:18 PM,66.2,64.4,94,30.06,10.0,NNW,4.6,-,N/A,,Partly Cloudy,340,2013-01-04 05:18:00
7:19 PM,66.2,64.4,94,30.06,10.0,Variable,4.6,-,N/A,,Light Drizzle,0,2013-01-04 05:19:00
7:29 PM,66.2,64.4,94,30.06,8.0,North,5.8,-,N/A,,Light Drizzle,10,2013-01-04 05:29:00
7:39 PM,66.2,64.4,94,30.06,10.0,North,6.9,-,N/A,,Partly Cloudy,10,2013-01-04 05:39:00
7:41 PM,66.2,64.4,94,30.06,10.0,Variable,4.6,-,N/A,,Partly Cloudy,0,2013-01-04 05:41:00
7:48 PM,66.2,64.4,94,30.07,10.0,North,4.6,-,N/A,,Light Drizzle,350,2013-01-04 05:48:00
7:55 PM,66.7,63.5,89,30.07,10.0,North,4.6,-,0.00,,Light Drizzle,360,2013-01-04 05:55:00
7:58 PM,66.2,62.6,88,30.07,10.0,North,4.6,-,N/A,,Clear,350,2013-01-04 05:58:00
8:05 PM,66.2,64.4,94,30.07,10.0,Variable,4.6,-,N/A,,Light Drizzle,0,2013-01-04 06:05:00
8:10 PM,66.2,62.6,88,30.08,10.0,Variable,6.9,-,N/A,,Light Drizzle,0,2013-01-04 06:10:00
8:33 PM,66.2,62.6,88,30.09,10.0,NNE,9.2,-,N/A,,Scattered Clouds,30,2013-01-04 06:33:00
8:51 PM,66.2,62.6,88,30.09,10.0,North,4.6,-,N/A,,Mostly Cloudy,360,2013-01-04 06:51:00
8:52 PM,66.2,62.6,88,30.09,10.0,North,3.5,-,N/A,,Light Drizzle,360,2013-01-04 06:52:00
8:55 PM,66.9,63.3,88,30.09,10.0,NNE,8.1,-,0.01,,Light Drizzle,20,2013-01-04 06:55:00
9:31 PM,66.2,62.6,88,30.09,10.0,NE,5.8,-,N/A,,Scattered Clouds,50,2013-01-04 07:31:00
9:34 PM,66.2,62.6,88,30.09,10.0,NE,6.9,-,N/A,,Light Drizzle,40,2013-01-04 07:34:00
9:55 PM,66.7,62.8,87,30.09,10.0,NNE,5.8,-,0.00,,Light Drizzle,20,2013-01-04 07:55:00
10:02 PM,66.2,62.6,88,30.08,10.0,NNE,9.2,-,N/A,,Partly Cloudy,20,2013-01-04 08:02:00
10:09 PM,68.0,62.6,83,30.09,10.0,NNE,5.8,-,N/A,,Light Drizzle,20,2013-01-04 08:09:00
10:22 PM,68.0,62.6,83,30.08,10.0,NNE,6.9,-,N/A,,Partly Cloudy,20,2013-01-04 08:22:00
10:24 PM,68.0,62.6,83,30.09,10.0,NNE,8.1,-,N/A,,Light Drizzle,20,2013-01-04 08:24:00
10:36 PM,68.0,62.6,83,30.08,10.0,North,6.9,-,N/A,,Partly Cloudy,350,2013-01-04 08:36:00
10:55 PM,67.1,62.6,85,30.08,10.0,North,6.9,-,0.00,,Scattered Clouds,10,2013-01-04 08:55:00
10:56 PM,68.0,62.6,83,30.09,10.0,North,6.9,-,N/A,,Light Drizzle,360,2013-01-04 08:56:00
11:01 PM,66.2,62.6,88,30.09,10.0,North,9.2,-,N/A,,Light Drizzle,360,2013-01-04 09:01:00
11:09 PM,66.2,62.6,88,30.09,10.0,North,6.9,-,N/A,,Light Drizzle,10,2013-01-04 09:09:00
11:29 PM,66.2,62.6,88,30.08,10.0,North,5.8,-,N/A,,Partly Cloudy,350,2013-01-04 09:29:00
11:55 PM,66.2,62.6,88,30.08,10.0,NNW,6.9,-,0.00,,Partly Cloudy,340,2013-01-04 09:55:00
11:57 PM,66.2,62.6,88,30.08,10.0,Variable,6.9,-,N/A,,Light Drizzle,0,2013-01-04 09:57:00